User: anonymous   Login
Location: Unspecified
(0.0000°N, 0.0000°E)
Time: 17:42:06
(UTC+01:00)
Language:

DFH-1 - Orbit

View from above orbital plane
View from above orbital plane
View from above satellite
View from above satellite

Ground track
Ground track

The orbit data is extracted from the following two-line orbital elements,

1  4382U 70034A   19080.90445620 +.00000260 +00000-0 +52008-4 0  9996
2  4382 068.4273 017.5906 1050877 186.2534 172.4489 13.07768619299388
Epoch (UTC): 21 March 2019 21:42:25
Eccentricity: 0.1050877
inclination: 68.4273°
perigee height: 432 km
apogee height: 2031 km
right ascension of ascending node: 17.5906°
argument of perigee: 186.2534°
revolutions per day: 13.07768619
mean anomaly at epoch: 172.4489°
orbit number at epoch: 29938

The dashed part of the orbit path shows where the satellite is in the earth's shadow,  

DLR